ARG1545 SACO-SAEZ

Flight info

Callsign ARG1545
Flight time 1h 2m
Altitude 29000
Route UTRAX UW24 SNT SNT7X
Aircraft B738/M-L/C

Departure

Time 2026-05-03 22:29
Airport Ingeniero Aeronáutico Ambrosio L.V. Taravella International Airport (SACO)

Arrival

Time 2026-05-03 23:31
Airport Ezeiza International Airport - Ministro Pistarini (SAEZ)
Time Latitude Longitude Altitude Speed Heading
2026-05-03 22:10 -31.31653 -64.21163 1612 ft 0 kts 270°
2026-05-03 22:19 -31.31653 -64.21153 1612 ft 2 kts 270°
2026-05-03 22:19 -31.31653 -64.21136 1612 ft 2 kts 270°
2026-05-03 22:19 -31.31653 -64.21122 1612 ft 0 kts 270°
2026-05-03 22:20 -31.31651 -64.21108 1612 ft 2 kts 237°
2026-05-03 22:20 -31.31640 -64.21097 1612 ft 2 kts 198°
2026-05-03 22:20 -31.31632 -64.21095 1612 ft 1 kts 176°
2026-05-03 22:20 -31.31626 -64.21095 1612 ft 0 kts 178°
2026-05-03 22:23 -31.31645 -64.21095 1612 ft 5 kts 179°
2026-05-03 22:23 -31.31697 -64.21095 1612 ft 9 kts 180°
2026-05-03 22:23 -31.31756 -64.21067 1612 ft 9 kts 137°
2026-05-03 22:23 -31.31829 -64.21029 1612 ft 14 kts 176°
2026-05-03 22:24 -31.31932 -64.21028 1612 ft 14 kts 179°
2026-05-03 22:24 -31.32027 -64.21027 1612 ft 13 kts 181°
2026-05-03 22:24 -31.32114 -64.21024 1612 ft 11 kts 179°
2026-05-03 22:24 -31.32191 -64.21024 1612 ft 10 kts 180°
2026-05-03 22:25 -31.32260 -64.21022 1612 ft 9 kts 178°
2026-05-03 22:25 -31.32319 -64.21021 1612 ft 7 kts 178°
2026-05-03 22:25 -31.32370 -64.21016 1612 ft 6 kts 168°
2026-05-03 22:25 -31.32410 -64.20988 1612 ft 9 kts 128°
2026-05-03 22:26 -31.32422 -64.20874 1612 ft 18 kts 58°
2026-05-03 22:26 -31.32336 -64.20773 1612 ft 16 kts 43°
2026-05-03 22:26 -31.32303 -64.20736 1612 ft 0 kts 44°
2026-05-03 22:28 -31.32290 -64.20721 1612 ft 10 kts 44°
2026-05-03 22:28 -31.31958 -64.20348 1612 ft 88 kts 44°
2026-05-03 22:28 -31.31380 -64.19696 1612 ft 138 kts 44°
2026-05-03 22:29 -31.30603 -64.18822 1837 ft 159 kts 44°
2026-05-03 22:29 -31.29890 -64.17844 2409 ft 158 kts 49°
2026-05-03 22:29 -31.29231 -64.16809 2798 ft 171 kts 50°
2026-05-03 22:29 -31.28464 -64.15702 3288 ft 175 kts 43°
2026-05-03 22:30 -31.27616 -64.14646 3679 ft 187 kts 43°
2026-05-03 22:30 -31.26717 -64.13533 4231 ft 191 kts 43°
2026-05-03 22:30 -31.25813 -64.12392 4793 ft 193 kts 42°
2026-05-03 22:30 -31.24909 -64.11241 5330 ft 196 kts 42°
2026-05-03 22:31 -31.23980 -64.10046 5810 ft 201 kts 43°
2026-05-03 22:31 -31.23290 -64.08600 6274 ft 216 kts 74°
2026-05-03 22:31 -31.23521 -64.06844 6719 ft 232 kts 113°
2026-05-03 22:31 -31.24582 -64.05388 7203 ft 238 kts 136°
2026-05-03 22:32 -31.25842 -64.04093 7500 ft 249 kts 133°
2026-05-03 22:32 -31.26828 -64.02415 7935 ft 248 kts 112°
2026-05-03 22:32 -31.27458 -64.00565 8415 ft 244 kts 108°
2026-05-03 22:32 -31.28044 -63.98659 8560 ft 251 kts 108°
2026-05-03 22:33 -31.28618 -63.96767 8755 ft 250 kts 108°
2026-05-03 22:33 -31.29204 -63.94814 8812 ft 256 kts 108°
2026-05-03 22:33 -31.29789 -63.92846 8789 ft 255 kts 108°
2026-05-03 22:33 -31.30557 -63.90995 8780 ft 259 kts 129°
2026-05-03 22:34 -31.32061 -63.89820 8809 ft 266 kts 164°
2026-05-03 22:34 -31.33927 -63.89385 8869 ft 277 kts 174°
2026-05-03 22:34 -31.35848 -63.89088 9025 ft 287 kts 175°
2026-05-03 22:34 -31.37875 -63.88734 9112 ft 295 kts 169°
2026-05-03 22:35 -31.39814 -63.88012 9574 ft 288 kts 159°
2026-05-03 22:35 -31.41590 -63.86933 10267 ft 285 kts 150°
2026-05-03 22:35 -31.43199 -63.85600 10402 ft 285 kts 143°
2026-05-03 22:35 -31.44746 -63.84048 10470 ft 301 kts 139°
2026-05-03 22:36 -31.46317 -63.82350 10703 ft 316 kts 139°
2026-05-03 22:36 -31.47976 -63.80533 10898 ft 332 kts 139°
2026-05-03 22:36 -31.49692 -63.78661 11112 ft 346 kts 139°
2026-05-03 22:36 -31.51496 -63.76709 11281 ft 360 kts 139°
2026-05-03 22:37 -31.53369 -63.74690 11437 ft 374 kts 139°
2026-05-03 22:37 -31.55319 -63.72590 11697 ft 383 kts 139°
2026-05-03 22:37 -31.57272 -63.70484 12050 ft 389 kts 139°
2026-05-03 22:37 -31.59314 -63.68283 12137 ft 402 kts 139°
2026-05-03 22:38 -31.61415 -63.66018 12215 ft 415 kts 139°
2026-05-03 22:38 -31.63556 -63.63707 12383 ft 423 kts 139°
2026-05-03 22:38 -31.65706 -63.61383 12826 ft 425 kts 139°
2026-05-03 22:38 -31.67891 -63.59016 13263 ft 428 kts 140°
2026-05-03 22:39 -31.70077 -63.56648 13703 ft 429 kts 140°
2026-05-03 22:39 -31.72281 -63.54208 14084 ft 433 kts 137°
2026-05-03 22:39 -31.74331 -63.51622 14466 ft 437 kts 134°
2026-05-03 22:39 -31.76296 -63.48880 14889 ft 439 kts 131°
2026-05-03 22:40 -31.78196 -63.46104 15275 ft 442 kts 131°
2026-05-03 22:40 -31.80138 -63.43240 15614 ft 444 kts 131°
2026-05-03 22:40 -31.82047 -63.40442 16022 ft 445 kts 131°
2026-05-03 22:40 -31.84022 -63.37584 16338 ft 449 kts 132°
2026-05-03 22:41 -31.86002 -63.34748 16654 ft 452 kts 132°
2026-05-03 22:41 -31.88009 -63.31893 16924 ft 455 kts 132°
2026-05-03 22:41 -31.90019 -63.29043 17272 ft 457 kts 132°
2026-05-03 22:41 -31.92067 -63.26145 17578 ft 459 kts 132°
2026-05-03 22:42 -31.94087 -63.23286 17879 ft 461 kts 133°
2026-05-03 22:42 -31.96135 -63.20387 18241 ft 461 kts 133°
2026-05-03 22:42 -31.98143 -63.17533 19112 ft 448 kts 133°
2026-05-03 22:42 -32.00127 -63.14711 19734 ft 442 kts 134°
2026-05-03 22:43 -32.02087 -63.11925 20045 ft 444 kts 134°
2026-05-03 22:43 -32.04046 -63.09144 20412 ft 444 kts 134°
2026-05-03 22:43 -32.06028 -63.06327 20922 ft 441 kts 134°
2026-05-03 22:43 -32.07983 -63.03544 21279 ft 442 kts 134°
2026-05-03 22:44 -32.09941 -63.00757 21657 ft 442 kts 134°
2026-05-03 22:44 -32.11886 -62.97984 22065 ft 441 kts 134°
2026-05-03 22:44 -32.13826 -62.95213 22426 ft 441 kts 135°
2026-05-03 22:44 -32.15778 -62.92426 22866 ft 439 kts 135°
2026-05-03 22:45 -32.17695 -62.89683 23363 ft 435 kts 135°
2026-05-03 22:45 -32.19620 -62.86928 23709 ft 436 kts 135°
2026-05-03 22:45 -32.21558 -62.84155 24040 ft 436 kts 135°
2026-05-03 22:45 -32.23470 -62.81417 24334 ft 438 kts 135°
2026-05-03 22:46 -32.25444 -62.78595 24420 ft 445 kts 135°
2026-05-03 22:46 -32.27414 -62.75780 24478 ft 452 kts 135°
2026-05-03 22:46 -32.29442 -62.72879 24607 ft 457 kts 135°
2026-05-03 22:46 -32.31410 -62.70048 25371 ft 446 kts 135°
2026-05-03 22:47 -32.33360 -62.67233 25772 ft 444 kts 135°
2026-05-03 22:47 -32.35318 -62.64407 26255 ft 440 kts 135°
2026-05-03 22:47 -32.37249 -62.61616 26775 ft 435 kts 136°
2026-05-03 22:47 -32.39140 -62.58882 27292 ft 430 kts 136°
2026-05-03 22:48 -32.41013 -62.56173 27783 ft 425 kts 136°
2026-05-03 22:48 -32.42892 -62.53460 28179 ft 423 kts 136°
2026-05-03 22:48 -32.44743 -62.50788 28569 ft 421 kts 136°
2026-05-03 22:48 -32.46598 -62.48108 28924 ft 420 kts 136°
2026-05-03 22:49 -32.48458 -62.45425 28994 ft 426 kts 136°
2026-05-03 22:49 -32.51637 -62.40846 29003 ft 438 kts 136°
2026-05-03 22:50 -32.55582 -62.35148 29003 ft 453 kts 136°
2026-05-03 22:50 -32.60360 -62.28224 29003 ft 470 kts 135°
2026-05-03 22:51 -32.64592 -62.22078 29003 ft 486 kts 135°
2026-05-03 22:51 -32.68890 -62.15812 29004 ft 501 kts 134°
2026-05-03 22:52 -32.73131 -62.09020 29004 ft 512 kts 130°
2026-05-03 22:52 -32.77124 -62.02007 29004 ft 514 kts 129°
2026-05-03 22:53 -32.81092 -61.94971 29007 ft 513 kts 129°
2026-05-03 22:53 -32.85075 -61.88002 29010 ft 511 kts 129°
2026-05-03 22:54 -32.89106 -61.81027 29008 ft 512 kts 130°
2026-05-03 22:54 -32.93148 -61.74064 29016 ft 513 kts 130°
2026-05-03 22:55 -32.97191 -61.67094 29019 ft 512 kts 130°
2026-05-03 22:55 -33.01236 -61.60103 29017 ft 512 kts 130°
2026-05-03 22:56 -33.05280 -61.53095 29024 ft 511 kts 130°
2026-05-03 22:56 -33.09280 -61.46145 29025 ft 512 kts 130°
2026-05-03 22:57 -33.13306 -61.39129 29027 ft 512 kts 130°
2026-05-03 22:57 -33.17336 -61.32093 29032 ft 513 kts 129°
2026-05-03 22:58 -33.21350 -61.25074 29034 ft 513 kts 129°
2026-05-03 22:58 -33.25382 -61.18013 29037 ft 514 kts 129°
2026-05-03 22:59 -33.29388 -61.10988 29040 ft 513 kts 129°
2026-05-03 22:59 -33.33406 -61.03899 29038 ft 515 kts 129°
2026-05-03 23:00 -33.37396 -60.96829 29033 ft 512 kts 129°
2026-05-03 23:00 -33.41353 -60.89787 29030 ft 514 kts 129°
2026-05-03 23:01 -33.45345 -60.82662 29030 ft 512 kts 129°
2026-05-03 23:01 -33.49314 -60.75571 29033 ft 514 kts 129°
2026-05-03 23:02 -33.53277 -60.68476 29033 ft 512 kts 129°
2026-05-03 23:02 -33.57231 -60.61386 29035 ft 512 kts 129°
2026-05-03 23:03 -33.61174 -60.54305 29036 ft 514 kts 129°
2026-05-03 23:03 -33.65147 -60.47158 29037 ft 514 kts 129°
2026-05-03 23:04 -33.69121 -60.39996 29039 ft 515 kts 129°
2026-05-03 23:04 -33.73076 -60.32848 29038 ft 513 kts 128°
2026-05-03 23:05 -33.77026 -60.25695 29041 ft 513 kts 128°
2026-05-03 23:05 -33.80961 -60.18554 29048 ft 513 kts 128°
2026-05-03 23:06 -33.84891 -60.11413 29043 ft 512 kts 129°
2026-05-03 23:06 -33.88861 -60.04280 29047 ft 513 kts 129°
2026-05-03 23:07 -33.92836 -59.97186 29048 ft 512 kts 129°
2026-05-03 23:07 -33.96806 -59.90094 29050 ft 513 kts 129°
2026-05-03 23:08 -34.00777 -59.82976 29047 ft 514 kts 129°
2026-05-03 23:08 -34.04740 -59.75847 29047 ft 513 kts 129°
2026-05-03 23:09 -34.08726 -59.68660 29011 ft 514 kts 129°
2026-05-03 23:09 -34.10691 -59.65101 28720 ft 499 kts 129°
2026-05-03 23:09 -34.12586 -59.61652 28299 ft 483 kts 129°
2026-05-03 23:09 -34.14411 -59.58326 27777 ft 471 kts 129°
2026-05-03 23:10 -34.16184 -59.55100 27216 ft 461 kts 129°
2026-05-03 23:10 -34.17948 -59.51895 26652 ft 453 kts 129°
2026-05-03 23:10 -34.19678 -59.48766 26096 ft 445 kts 130°
2026-05-03 23:10 -34.21462 -59.45791 25542 ft 435 kts 134°
2026-05-03 23:11 -34.23402 -59.43079 25002 ft 422 kts 140°
2026-05-03 23:11 -34.25508 -59.40642 24472 ft 412 kts 145°
2026-05-03 23:11 -34.27654 -59.38414 23960 ft 406 kts 147°
2026-05-03 23:11 -34.29810 -59.36281 23436 ft 401 kts 148°
2026-05-03 23:12 -34.31973 -59.34172 22921 ft 398 kts 147°
2026-05-03 23:12 -34.34129 -59.32066 22409 ft 394 kts 147°
2026-05-03 23:12 -34.36219 -59.30013 21906 ft 392 kts 146°
2026-05-03 23:12 -34.38340 -59.27918 21389 ft 392 kts 146°
2026-05-03 23:13 -34.40436 -59.25832 20870 ft 391 kts 146°
2026-05-03 23:13 -34.42533 -59.23732 20351 ft 390 kts 146°
2026-05-03 23:13 -34.44599 -59.21655 19837 ft 389 kts 145°
2026-05-03 23:13 -34.46662 -59.19576 19317 ft 387 kts 145°
2026-05-03 23:14 -34.48751 -59.17468 18794 ft 385 kts 145°
2026-05-03 23:14 -34.50794 -59.15403 18277 ft 384 kts 145°
2026-05-03 23:14 -34.52829 -59.13341 17766 ft 382 kts 145°
2026-05-03 23:14 -34.54862 -59.11281 17252 ft 380 kts 144°
2026-05-03 23:15 -34.56862 -59.09254 16743 ft 378 kts 144°
2026-05-03 23:15 -34.58882 -59.07205 16236 ft 375 kts 144°
2026-05-03 23:15 -34.60862 -59.05156 15786 ft 372 kts 142°
2026-05-03 23:15 -34.62711 -59.02996 15377 ft 368 kts 138°
2026-05-03 23:16 -34.64458 -59.00769 14875 ft 367 kts 136°
2026-05-03 23:16 -34.66197 -58.98484 14352 ft 366 kts 136°
2026-05-03 23:16 -34.67914 -58.96224 13832 ft 364 kts 136°
2026-05-03 23:16 -34.69625 -58.93997 13323 ft 363 kts 136°
2026-05-03 23:17 -34.71355 -58.91766 12810 ft 361 kts 136°
2026-05-03 23:17 -34.73066 -58.89572 12290 ft 354 kts 136°
2026-05-03 23:17 -34.74735 -58.87439 11797 ft 345 kts 136°
2026-05-03 23:17 -34.76370 -58.85350 11328 ft 338 kts 136°
2026-05-03 23:18 -34.77960 -58.83319 10843 ft 332 kts 136°
2026-05-03 23:18 -34.79540 -58.81301 10403 ft 323 kts 136°
2026-05-03 23:18 -34.81049 -58.79370 10223 ft 308 kts 136°
2026-05-03 23:18 -34.82499 -58.77512 10096 ft 293 kts 136°
2026-05-03 23:19 -34.83877 -58.75745 9764 ft 287 kts 136°
2026-05-03 23:19 -34.85243 -58.73997 9402 ft 285 kts 136°
2026-05-03 23:19 -34.86592 -58.72270 9053 ft 280 kts 135°
2026-05-03 23:19 -34.87915 -58.70574 8736 ft 274 kts 135°
2026-05-03 23:20 -34.89213 -58.68909 8397 ft 270 kts 135°
2026-05-03 23:20 -34.90494 -58.67263 8062 ft 263 kts 135°
2026-05-03 23:20 -34.91736 -58.65668 7743 ft 256 kts 135°
2026-05-03 23:20 -34.92940 -58.64121 7433 ft 250 kts 135°
2026-05-03 23:21 -34.94130 -58.62591 7120 ft 244 kts 135°
2026-05-03 23:21 -34.95267 -58.61130 6857 ft 238 kts 134°
2026-05-03 23:21 -34.96409 -58.59660 6529 ft 235 kts 134°
2026-05-03 23:21 -34.97520 -58.58231 6257 ft 231 kts 134°
2026-05-03 23:22 -34.99704 -58.55418 5676 ft 225 kts 134°
2026-05-03 23:22 -35.00763 -58.54052 5386 ft 221 kts 133°
2026-05-03 23:22 -35.01809 -58.52703 5125 ft 216 kts 133°
2026-05-03 23:23 -35.02825 -58.51393 4856 ft 212 kts 133°
2026-05-03 23:23 -35.03827 -58.50099 4617 ft 208 kts 133°
2026-05-03 23:23 -35.04805 -58.48837 4470 ft 198 kts 133°
2026-05-03 23:23 -35.05732 -58.47640 4406 ft 194 kts 133°
2026-05-03 23:24 -35.06570 -58.46355 4347 ft 194 kts 116°
2026-05-03 23:24 -35.06871 -58.44801 4273 ft 187 kts 81°
2026-05-03 23:24 -35.06594 -58.43276 4092 ft 180 kts 62°
2026-05-03 23:24 -35.05974 -58.42003 3838 ft 169 kts 39°
2026-05-03 23:25 -35.05040 -58.41237 3628 ft 157 kts 18°
2026-05-03 23:25 -35.04009 -58.40861 3446 ft 152 kts
2026-05-03 23:25 -35.03060 -58.41225 3255 ft 146 kts 321°
2026-05-03 23:25 -35.02395 -58.42185 3119 ft 148 kts 311°
2026-05-03 23:26 -35.01733 -58.43123 3049 ft 147 kts 315°
2026-05-03 23:26 -35.01043 -58.44055 3010 ft 148 kts 314°
2026-05-03 23:26 -35.00354 -58.45003 2967 ft 148 kts 314°
2026-05-03 23:26 -34.99675 -58.45947 2925 ft 148 kts 314°
2026-05-03 23:27 -34.98996 -58.46871 2869 ft 147 kts 317°
2026-05-03 23:27 -34.98126 -58.47465 2761 ft 140 kts 347°
2026-05-03 23:27 -34.97180 -58.47662 2645 ft 139 kts 344°
2026-05-03 23:27 -34.96259 -58.48020 2528 ft 136 kts 342°
2026-05-03 23:28 -34.95352 -58.48345 2391 ft 136 kts 344°
2026-05-03 23:28 -34.94442 -58.48667 2264 ft 136 kts 344°
2026-05-03 23:28 -34.93542 -58.48983 2189 ft 135 kts 344°
2026-05-03 23:28 -34.92617 -58.49306 2012 ft 137 kts 345°
2026-05-03 23:29 -34.91716 -58.49622 1829 ft 134 kts 345°
2026-05-03 23:29 -34.90821 -58.49932 1642 ft 135 kts 345°
2026-05-03 23:29 -34.89913 -58.50248 1454 ft 136 kts 345°
2026-05-03 23:29 -34.88987 -58.50572 1269 ft 138 kts 345°
2026-05-03 23:30 -34.88055 -58.50894 1079 ft 140 kts 345°
2026-05-03 23:30 -34.87120 -58.51219 891 ft 143 kts 345°
2026-05-03 23:30 -34.86151 -58.51566 652 ft 146 kts 344°
2026-05-03 23:30 -34.85164 -58.51924 457 ft 146 kts 344°
2026-05-03 23:31 -34.84193 -58.52259 224 ft 147 kts 344°
2026-05-03 23:31 -34.83213 -58.52567 71 ft 132 kts 341°
2026-05-03 23:31 -34.82572 -58.52790 71 ft 61 kts 344°
2026-05-03 23:31 -34.82350 -58.52865 71 ft 10 kts 345°
2026-05-03 23:32 -34.82284 -58.52889 71 ft 10 kts 344°
2026-05-03 23:32 -34.82215 -58.52914 71 ft 10 kts 343°
2026-05-03 23:32 -34.82148 -58.52939 71 ft 10 kts 345°
2026-05-03 23:32 -34.82072 -58.52966 71 ft 10 kts 333°
2026-05-03 23:33 -34.82027 -58.53028 71 ft 9 kts 294°
2026-05-03 23:33 -34.82010 -58.53100 71 ft 8 kts 284°
2026-05-03 23:33 -34.81996 -58.53166 71 ft 8 kts 283°
2026-05-03 23:33 -34.81982 -58.53235 71 ft 8 kts 283°
2026-05-03 23:34 -34.81971 -58.53298 71 ft 7 kts 283°
2026-05-03 23:34 -34.81957 -58.53364 71 ft 8 kts 284°
2026-05-03 23:34 -34.81945 -58.53426 71 ft 7 kts 284°
2026-05-03 23:34 -34.81934 -58.53480 71 ft 6 kts 284°
2026-05-03 23:35 -34.81924 -58.53526 71 ft 5 kts 285°
2026-05-03 23:35 -34.81911 -58.53585 71 ft 7 kts 289°
2026-05-03 23:35 -34.81873 -58.53643 71 ft 11 kts 326°
2026-05-03 23:35 -34.81802 -58.53688 71 ft 11 kts 335°
2026-05-03 23:36 -34.81737 -58.53732 71 ft 10 kts 326°
2026-05-03 23:36 -34.81679 -58.53776 71 ft 9 kts 343°
2026-05-03 23:36 -34.81620 -58.53809 71 ft 9 kts 327°
2026-05-03 23:36 -34.81587 -58.53835 71 ft 8 kts 327°
2026-05-03 23:37 -34.81540 -58.53867 71 ft 7 kts 336°
2026-05-03 23:37 -34.81495 -58.53885 71 ft 3 kts 354°
2026-05-03 23:37 -34.81484 -58.53886 71 ft 0 kts 355°